Location: Bowden
(51.9167°N, 114.0333°W)
Time: 10:01:54
(UTC+00:00)

Envisat - Pass Details

Date: 06 December 2021
Orbit: 764 x 766 km, 98.2° (Epoch: 28 January)

Event Time Altitude Azimuth Distance (km) Brightness Sun altitude
Rises 12:36:09 0° 16° (NNE) 3,248 6.4 -25.3°
Reaches altitude 10° 12:38:29 10° 19° (NNE) 2,317 5.6 -25.0°
Maximum altitude 12:43:34 68° 102° (ESE) 825 3.3 -24.2°
Drops below altitude 10° 12:48:37 10° 186° (S) 2,299 5.5 -23.4°
Sets 12:50:56 0° 189° (S) 3,220 6.2 -23.1°
